Location: *
(50.5492°N, 7.7469°E)
Time: 08:21:40
(UTC+00:00)

Cosmos 2151 - Pass Details

Date: 21 October 2019
Orbit: 582 x 600 km, 82.5° (Epoch: 17 November)

Event Time Altitude Azimuth Distance (km) Brightness Sun altitude
Rises 17:37:49 0° 0° (N) 2,863 6.5 -12.1°
Reaches altitude 10° 17:40:34 10° 18° (NNE) 1,956 5.4 -12.6°
Maximum altitude 17:43:45 20° 66° (ENE) 1,426 4.4 -13.1°
Enters shadow 17:44:08 19° 73° (ENE) 1,434 4.3 -13.1°
